Miscellaneous Local Product
Issued by NWS Hastings, NE

Home | Current Version | Previous Version | Graphics & Text | Print | Product List | Glossary On
Versions: 1 2 3 4 5 6 7 8 9 10 11 12 13 14 15 16 17 18 19 20 21 22 23 24 25 26 27 28 29 30 31 32 33 34 35 36 37 38 39 40 41 42 43 44 45 46 47 48 49 50
199
AXUS43 KGID 212202
MISGRI

GID CWA HOURLY WEATHER ROUNDUP
NATIONAL WEATHER SERVICE HASTINGS NE
400 PM CST TUE NOV 21 2017

NOTE: "FAIR" INDICATES FEW OR NO CLOUDS BELOW 12,000 FEET WITH NO
SIGNIFICANT WEATHER AND/OR OBSTRUCTIONS TO VISIBILITY.

...SOUTH CENTRAL NEBRASKA...

CITY           SKY/WX    TMP DP  RH WIND       PRES   REMARKS
GRAND ISLAND   SUNNY     32  12  43 N20       30.36R WCI  20
KEARNEY        SUNNY     36   6  28 N22       30.34R WCI  25
HASTINGS       SUNNY     35   8  32 N17       30.34R WCI  25
ORD            SUNNY     31   9  39 N17G26    30.34S WCI  19
YORK           CLEAR     32  14  47 N20G26    30.35R WCI  20
AURORA         SUNNY     32  11  41 N21       30.35R WCI  20
LEXINGTON      SUNNY     40  13  33 N14       30.34R WCI  32
HOLDREGE       SUNNY     39  16  39 N18       30.33S WCI  29
HEBRON         SUNNY     37  11  34 N13G23    30.34R WCI  28

...NEBRASKA PANHANDLE...

CITY           SKY/WX    TMP DP  RH WIND       PRES   REMARKS
CHADRON        SUNNY     43  25  49 W10       30.28F
ALLIANCE       SUNNY     45  26  47 N9        30.27S
SCOTTSBLUFF    SUNNY     48  24  39 W10       30.26F
SIDNEY         SUNNY     47  25  42 VRB5      30.29S

...WESTERN AND NORTH CENTRAL NEBRASKA...

CITY           SKY/WX    TMP DP  RH WIND       PRES   REMARKS
VALENTINE      SUNNY     31  11  43 NW10      30.34S WCI  22
AINSWORTH      SUNNY     28   9  44 NW13      30.35R WCI  18
ONEILL         CLEAR     25  13  60 NW16      30.35S WCI  12
BROKEN BOW     SUNNY     35  10  35 N15       30.32F WCI  25
IMPERIAL       SUNNY     47  25  42 N8        30.32R
NORTH PLATTE   SUNNY     42  15  33 N12       30.33R
MCCOOK         SUNNY     45  21  38 N12       30.33R

...EASTERN NEBRASKA...

CITY           SKY/WX    TMP DP  RH WIND       PRES   REMARKS
NORFOLK        CLEAR     28  11  48 NW17      30.33R WCI  16
SO SIOUX CITY  CLEAR     29  10  45 NW16      30.33R WCI  17
TEKAMAH        CLEAR     31  10  41 NW21G31   30.34R WCI  18
COLUMBUS       CLEAR     30  13  49 NW21      30.36R WCI  17
ALBION         CLEAR     29  12  49 N14G20    30.35R WCI  19
OMAHA EPPLEY   CLEAR     32  12  43 NW18G28   30.32R WCI  20
OFFUTT AFB     CLEAR     33  12  41 NW20G25   30.31R WCI  21
MILLARD        CLEAR     33  13  43 NW16G24   30.33R WCI  23
LINCOLN        CLEAR     34  12  40 N16G25    30.36R WCI  24
NEBRASKA CITY  CLEAR     33  15  46 N21       30.31R WCI  21
BEATRICE       CLEAR     35  14  43 N21       30.34R WCI  23
FALLS CITY     CLEAR     35  14  42 N16G26    30.30R WCI  25

...NORTHERN KANSAS...

CITY           SKY/WX    TMP DP  RH WIND       PRES   REMARKS
GOODLAND       SUNNY     46  26  45 N15G23    30.32R
HILL CITY      SUNNY     48  19  31 N20G29    30.33R
NORTON         CLEAR     45   9  23 NW18      30.33R
PHILLIPSBURG   SUNNY     45  12  26 N16G22    30.34S
SMITH CENTER   SUNNY     41  10  28 NW15G24   30.34R
HAYS           SUNNY     47  19  33 N21       30.31R
RUSSELL        SUNNY     46  17  31 N23G29    30.31R
CONCORDIA      SUNNY     39   7  26 N20G30    30.32R WCI  29
SALINA         SUNNY     46   8  21 N29       30.31R
TOPEKA         CLEAR     42  16  34 NW15G28   30.27R



USA.gov is the U.S. government's official web portal to all federal, state and local government web resources and services.